When you browse on this site, cookies collect data to enhance your experience and personalize the content and advertising you see.
Visit our Privacy Policy to learn more. By continuing to use the site, you agree to this use of cookies and data.
  • In Hungary
  • List of Countries
  • For 7 days
  • Water Temperature
  • Satellite Maps
  • Weather Map
  • News
  • Weather Widgets
  • user-avatar
    Login

    Hourly Weather Castelvetrano

    Today, 22 January, Tuesday

    Time Temperature Precipitation Wind Pressure Humidity
    00:00 +9°C° 0 mm 3 mps 740 mmHg 88%
    01:00 +10°C° 0 mm 4 mps 740 mmHg 89%
    02:00 +10°C° 0.4 mm 4 mps 740 mmHg 90%
    03:00 +10°C° 0.4 mm 4 mps 740 mmHg 91%
    04:00 +10°C° 0.4 mm 4 mps 740 mmHg 92%
    05:00 +10°C° 0.4 mm 4 mps 740 mmHg 92%
    06:00 +8°C° 0.4 mm 4 mps 740 mmHg 91%
    07:00 +8°C° 0 mm 5 mps 740 mmHg 91%
    08:00 +9°C° 0.2 mm 5 mps 741 mmHg 87%
    09:00 +9°C° 0.2 mm 5 mps 741 mmHg 83%
    10:00 +10°C° 0.2 mm 5 mps 741 mmHg 78%
    11:00 +10°C° 0.1 mm 6 mps 741 mmHg 75%
    12:00 +11°C° 0.1 mm 6 mps 741 mmHg 71%
    13:00 +11°C° 0 mm 6 mps 742 mmHg 68%
    14:00 +11°C° 0.1 mm 6 mps 741 mmHg 68%
    15:00 +10°C° 0.1 mm 6 mps 741 mmHg 68%
    16:00 +10°C° 0.1 mm 5 mps 741 mmHg 68%
    17:00 +9°C° 0 mm 5 mps 741 mmHg 72%
    18:00 +8°C° 0 mm 4 mps 740 mmHg 75%
    19:00 +7°C° 0 mm 4 mps 740 mmHg 78%
    20:00 +7°C° 0 mm 4 mps 740 mmHg 78%
    21:00 +7°C° 0 mm 4 mps 740 mmHg 78%
    22:00 +6°C° 0 mm 4 mps 740 mmHg 78%
    23:00 +6°C° 0 mm 4 mps 740 mmHg 79%

    Tomorrow, 23 January, Wednesday

    Time Temperature Precipitation Wind Pressure Humidity
    00:00 +7°C° 0 mm 3 mps 740 mmHg 79%
    01:00 +7°C° 0 mm 3 mps 739 mmHg 80%
    02:00 +7°C° 0.1 mm 3 mps 739 mmHg 81%
    03:00 +7°C° 0.1 mm 2 mps 738 mmHg 82%
    04:00 +6°C° 0.1 mm 2 mps 738 mmHg 82%
    05:00 +6°C° 0 mm 2 mps 737 mmHg 83%
    06:00 +7°C° 0 mm 1 mps 737 mmHg 83%
    07:00 +7°C° 0 mm 1 mps 737 mmHg 83%
    08:00 +8°C° 0.1 mm 1 mps 737 mmHg 79%
    09:00 +9°C° 0.1 mm 1 mps 737 mmHg 75%
    10:00 +10°C° 0.1 mm 2 mps 736 mmHg 70%
    11:00 +10°C° 0.3 mm 2 mps 736 mmHg 71%
    12:00 +10°C° 0.3 mm 3 mps 735 mmHg 72%
    13:00 +10°C° 0.3 mm 4 mps 735 mmHg 72%
    14:00 +9°C° 0.7 mm 5 mps 734 mmHg 75%
    15:00 +8°C° 0.7 mm 5 mps 734 mmHg 77%
    16:00 +8°C° 0.7 mm 5 mps 733 mmHg 79%
    17:00 +8°C° 0.7 mm 4 mps 733 mmHg 80%
    18:00 +7°C° 0.7 mm 4 mps 733 mmHg 81%
    19:00 +7°C° 0.7 mm 4 mps 732 mmHg 82%
    20:00 +7°C° 0.1 mm 4 mps 732 mmHg 81%
    21:00 +6°C° 0.1 mm 4 mps 731 mmHg 81%
    22:00 +6°C° 0.1 mm 4 mps 730 mmHg 80%
    23:00 +6°C° 0.3 mm 5 mps 730 mmHg 81%

    Day after tomorrow, 24 January, Thursday

    Time Temperature Precipitation Wind Pressure Humidity
    00:00 +7°C° 0.3 mm 6 mps 729 mmHg 83%
    01:00 +6°C° 0.3 mm 7 mps 728 mmHg 84%
    02:00 +6°C° 0.8 mm 7 mps 727 mmHg 84%
    03:00 +6°C° 0.8 mm 7 mps 727 mmHg 85%
    04:00 +7°C° 0.8 mm 6 mps 726 mmHg 85%
    05:00 +6°C° 1 mm 7 mps 726 mmHg 84%
    06:00 +6°C° 1 mm 7 mps 725 mmHg 83%
    07:00 +5°C° 1 mm 7 mps 725 mmHg 81%
    08:00 +5°C° 0.8 mm 7 mps 725 mmHg 80%
    09:00 +5°C° 0.8 mm 6 mps 725 mmHg 78%
    10:00 +5°C° 0.8 mm 6 mps 725 mmHg 77%
    11:00 +7°C° 0.6 mm 6 mps 725 mmHg 75%
    12:00 +6°C° 0.6 mm 7 mps 725 mmHg 73%
    13:00 +7°C° 0.6 mm 8 mps 724 mmHg 71%
    14:00 +6°C° 1.1 mm 7 mps 724 mmHg 73%
    15:00 +6°C° 1.1 mm 7 mps 723 mmHg 75%
    16:00 +6°C° 1.1 mm 7 mps 723 mmHg 77%
    17:00 +5°C° 0.1 mm 7 mps 723 mmHg 78%
    18:00 +5°C° 0.1 mm 6 mps 723 mmHg 79%
    19:00 +5°C° 0.1 mm 6 mps 723 mmHg 80%
    20:00 +4°C° 0.2 mm 6 mps 723 mmHg 81%
    21:00 +4°C° 0.2 mm 6 mps 723 mmHg 81%
    22:00 +4°C° 0.2 mm 6 mps 724 mmHg 81%
    23:00 +4°C° 0 mm 6 mps 724 mmHg 82%

    25 January, Friday

    Time Temperature Precipitation Wind Pressure Humidity
    00:00 +4°C° 0 mm 6 mps 724 mmHg 82%
    01:00 +4°C° 0 mm 6 mps 725 mmHg 82%
    02:00 +4°C° 0.3 mm 7 mps 725 mmHg 84%
    03:00 +5°C° 0.3 mm 7 mps 726 mmHg 86%
    04:00 +5°C° 0.3 mm 8 mps 726 mmHg 87%
    05:00 +5°C° 0.3 mm 9 mps 727 mmHg 85%
    06:00 +6°C° 0.3 mm 10 mps 728 mmHg 82%
    07:00 +6°C° 0.3 mm 11 mps 729 mmHg 79%
    08:00 +7°C° 0 mm 10 mps 729 mmHg 76%
    09:00 +8°C° 0 mm 9 mps 730 mmHg 74%
    10:00 +9°C° 0 mm 8 mps 730 mmHg 71%
    11:00 +10°C° 0.1 mm 9 mps 731 mmHg 70%
    12:00 +10°C° 0.1 mm 9 mps 731 mmHg 68%
    13:00 +10°C° 0.1 mm 9 mps 732 mmHg 67%
    14:00 +9°C° 0.2 mm 8 mps 732 mmHg 70%
    15:00 +9°C° 0.2 mm 8 mps 732 mmHg 72%
    16:00 +7°C° 0.2 mm 8 mps 732 mmHg 75%
    17:00 +8°C° 0 mm 7 mps 733 mmHg 77%
    18:00 +6°C° 0 mm 7 mps 733 mmHg 79%
    19:00 +5°C° 0 mm 6 mps 733 mmHg 81%
    20:00 +6°C° 0 mm 5 mps 733 mmHg 81%
    21:00 +6°C° 0 mm 5 mps 734 mmHg 80%
    22:00 +6°C° 0 mm 4 mps 734 mmHg 80%
    23:00 +5°C° 0 mm 4 mps 734 mmHg 80%

    26 January, Saturday

    Time Temperature Precipitation Wind Pressure Humidity
    00:00 +5°C° 0 mm 3 mps 734 mmHg 79%
    01:00 +5°C° 0 mm 3 mps 734 mmHg 79%
    02:00 +5°C° 0 mm 3 mps 734 mmHg 79%
    03:00 +6°C° 0 mm 2 mps 734 mmHg 79%
    04:00 +6°C° 0 mm 2 mps 734 mmHg 79%
    05:00 +6°C° 0 mm 2 mps 734 mmHg 80%
    06:00 +5°C° 0 mm 2 mps 734 mmHg 80%
    07:00 +5°C° 0 mm 2 mps 734 mmHg 80%
    08:00 +7°C° 0 mm 2 mps 735 mmHg 76%
    09:00 +8°C° 0 mm 2 mps 736 mmHg 72%
    10:00 +10°C° 0 mm 3 mps 736 mmHg 67%
    11:00 +10°C° 0 mm 3 mps 736 mmHg 63%
    12:00 +11°C° 0 mm 3 mps 737 mmHg 59%
    13:00 +12°C° 0 mm 3 mps 737 mmHg 54%
    14:00 +11°C° 0 mm 3 mps 737 mmHg 57%
    15:00 +11°C° 0 mm 4 mps 737 mmHg 59%
    16:00 +11°C° 0 mm 4 mps 737 mmHg 61%
    17:00 +8°C° 0 mm 4 mps 737 mmHg 67%
    18:00 +7°C° 0 mm 4 mps 738 mmHg 72%
    19:00 +6°C° 0 mm 4 mps 738 mmHg 78%
    20:00 +6°C° 0.1 mm 4 mps 738 mmHg 79%
    21:00 +6°C° 0.1 mm 5 mps 739 mmHg 80%
    22:00 +6°C° 0.1 mm 5 mps 739 mmHg 81%
    23:00 +5°C° 0 mm 4 mps 739 mmHg 82%

    27 January, Sunday

    Time Temperature Precipitation Wind Pressure Humidity
    00:00 +5°C° 0 mm 4 mps 739 mmHg 82%
    01:00 +5°C° 0 mm 3 mps 739 mmHg 83%
    02:00 +5°C° 0 mm 3 mps 739 mmHg 83%
    03:00 +5°C° 0 mm 3 mps 739 mmHg 82%
    04:00 +5°C° 0 mm 4 mps 739 mmHg 82%
    05:00 +5°C° 0 mm 4 mps 739 mmHg 82%
    06:00 +5°C° 0 mm 4 mps 739 mmHg 81%
    07:00 +5°C° 0 mm 4 mps 739 mmHg 81%
    08:00 +6°C° 0 mm 4 mps 740 mmHg 77%
    09:00 +7°C° 0 mm 5 mps 740 mmHg 73%
    10:00 +9°C° 0 mm 5 mps 740 mmHg 68%
    11:00 +9°C° 0.4 mm 5 mps 740 mmHg 71%
    12:00 +8°C° 0.4 mm 6 mps 740 mmHg 73%
    13:00 +8°C° 0.4 mm 7 mps 740 mmHg 75%
    14:00 +8°C° 0.1 mm 6 mps 739 mmHg 73%
    15:00 +9°C° 0.1 mm 5 mps 739 mmHg 70%
    16:00 +10°C° 0.1 mm 4 mps 739 mmHg 68%
    17:00 +9°C° 0 mm 3 mps 739 mmHg 70%
    18:00 +8°C° 0 mm 2 mps 739 mmHg 73%
    19:00 +7°C° 0 mm 1 mps 739 mmHg 75%
    20:00 +8°C° 0 mm 1 mps 739 mmHg 76%
    21:00 +7°C° 0 mm 2 mps 739 mmHg 77%
    22:00 +7°C° 0 mm 2 mps 739 mmHg 78%
    23:00 +7°C° 0 mm 2 mps 739 mmHg 80%
    Show more